Carbondale, IL

4:56 AM CST on December 06, 2019 (GMT -0600)
Southern Illinois

Weather History for KMDH - October, 2019

Change the Weather History Date:

Wednesday, October 30, 2019

  Actual Average Record
Temperature  
Mean Temperature 45 °F -  
Max Temperature 48 °F 64 °F 85 °F (1922)
Min Temperature 41 °F 40 °F 20 °F (1976)
Degree Days  
Heating Degree Days 20    
Moisture  
Dew Point 44 °F    
Average Humidity 94    
Maximum Humidity 97    
Minimum Humidity 89    
Precipitation  
Precipitation 0.20 in - - ()
Sea Level Pressure  
Sea Level Pressure 30.02 in    
Wind  
Wind Speed 7 mph (NNW)    
Max Wind Speed 12 mph    
Max Gust Speed -    
Visibility 4 miles    
Events Rain    
Averages and records for this station are not official NWS values.
T = Trace of Precipitation, MM = Missing Value Source: NWS Daily Summary

Daily Weather History Graph

Daily Weather History Graph

Search for Another Location

Airport or City:

Astronomy

Oct. 30, 2019 Rise Set
Actual Time 7:20 AM CDT 6:00 PM CDT
Civil Twilight 6:52 AM CDT 6:27 PM CDT
Nautical Twilight 6:22 AM CDT 6:58 PM CDT
Astronomical Twilight 5:51 AM CDT 7:29 PM CDT
Moon 10:01 AM CDT (10/30) 8:10 PM CDT (10/30)
Length of Visible Light 11h 34m
Length of Day
10h 40m
Waxing Crescent, 9% of the Moon is Illuminated
Oct 30
Waxing Crescent
Nov 4
First Quarter
Nov 12
Full
Nov 19
Last Quarter
Nov 26
New

Hourly Weather History & Observations

Time (CDT) Temp. Windchill Dew Point Humidity Pressure Visibility Wind Dir Wind Speed Gust Speed Precip Events Conditions
12:36 AM 44.1 °F 40.1 °F 42.1 °F 93% 30.18 in 3.0 mi NNE 6.9 mph - N/A   Overcast
12:52 AM 44.1 °F 40.8 °F 42.1 °F 93% 30.19 in 3.0 mi North 5.8 mph - 0.00 in Rain Light Rain
12:57 AM 44.1 °F 41.5 °F 42.1 °F 93% 30.19 in 3.0 mi North 4.6 mph - 0.00 in Rain Light Rain
1:52 AM 44.1 °F 41.5 °F 42.1 °F 93% 30.17 in 7.0 mi NNE 4.6 mph - 0.01 in   Overcast
2:52 AM 44.1 °F 40.8 °F 42.1 °F 93% 30.11 in 7.0 mi NE 5.8 mph - N/A   Overcast
3:52 AM 45.0 °F 41.8 °F 43.0 °F 93% 30.10 in 5.0 mi NE 5.8 mph - N/A   Overcast
4:52 AM 45.0 °F 41.2 °F 43.0 °F 93% 30.11 in 5.0 mi NE 6.9 mph - 0.00 in   Overcast
5:52 AM 45.0 °F 43.5 °F 43.0 °F 93% 30.10 in 4.0 mi North 3.5 mph - 0.02 in Rain Light Rain
6:52 AM 45.0 °F 40.6 °F 43.0 °F 93% 30.09 in 5.0 mi NNW 8.1 mph - 0.02 in   Overcast
7:52 AM 45.0 °F 42.6 °F 43.0 °F 93% 30.07 in 3.0 mi NNE 4.6 mph - 0.01 in Rain Light Rain
8:52 AM 45.0 °F 41.2 °F 43.0 °F 93% 30.07 in 3.0 mi North 6.9 mph - 0.01 in   Overcast
9:10 AM 45.0 °F 41.2 °F 44.1 °F 97% 30.06 in 2.5 mi North 6.9 mph - N/A   Overcast
9:34 AM 45.0 °F 41.8 °F 44.1 °F 97% 30.07 in 1.2 mi NNW 5.8 mph - 0.00 in Rain Light Rain
9:52 AM 45.0 °F 40.6 °F 44.1 °F 97% 30.07 in 0.8 mi North 8.1 mph - 0.00 in   Overcast
10:52 AM 46.0 °F 42.5 °F 44.1 °F 93% 30.07 in 1.0 mi North 6.9 mph - 0.01 in Rain Light Rain
11:52 AM 46.9 °F - 45.0 °F 93% 30.04 in 1.2 mi North 8.1 mph - 0.00 in   Overcast
12:52 PM 48.0 °F - 46.0 °F 93% 29.99 in 2.0 mi North 10.4 mph - N/A   Overcast
1:14 PM 48.0 °F - 46.0 °F 93% 29.98 in 3.0 mi Variable 4.6 mph - N/A   Overcast
1:50 PM 48.2 °F - 46.4 °F 93% 29.98 in 2.5 mi NW 6.9 mph - 0.01 in Rain Light Rain
1:52 PM 48.0 °F - 46.0 °F 93% 29.99 in 3.0 mi WNW 6.9 mph - 0.01 in Rain Light Rain
2:08 PM 48.9 °F - 46.9 °F 93% 29.98 in 1.8 mi NW 6.9 mph - 0.01 in Rain Light Rain
2:18 PM 48.9 °F - 46.9 °F 93% 29.97 in 2.5 mi NW 6.9 mph - 0.02 in Rain Light Rain
2:25 PM 48.9 °F - 46.9 °F 93% 29.97 in 7.0 mi NW 8.1 mph - 0.02 in Rain Light Rain
2:52 PM 48.9 °F - 46.0 °F 90% 29.98 in 9.0 mi NW 6.9 mph - 0.03 in   Overcast
3:52 PM 48.0 °F - 45.0 °F 89% 29.95 in 10.0 mi NNW 6.9 mph - 0.00 in   Overcast
4:52 PM 46.9 °F - 45.0 °F 93% 29.97 in 6.0 mi NW 10.4 mph - 0.00 in   Overcast
5:52 PM 46.0 °F 42.5 °F 44.1 °F 93% 29.96 in 2.5 mi NW 6.9 mph - 0.00 in Rain Light Rain
6:00 PM 46.0 °F 41.9 °F 44.1 °F 93% 29.97 in 1.8 mi NW 8.1 mph - 0.01 in Rain Light Rain
6:05 PM 45.0 °F 40.1 °F 44.1 °F 97% 29.96 in 3.0 mi NW 9.2 mph - 0.02 in Rain Light Rain
6:52 PM 45.0 °F 40.1 °F 43.0 °F 93% 29.97 in 5.0 mi NNW 9.2 mph - 0.04 in Rain Light Rain
7:52 PM 44.1 °F 39.5 °F 42.1 °F 93% 29.98 in 4.0 mi NW 8.1 mph - 0.00 in   Overcast
8:44 PM 43.0 °F 38.2 °F 42.1 °F 97% 29.94 in 8.0 mi NNW 8.1 mph - N/A   Overcast
8:52 PM 43.0 °F 38.2 °F 42.1 °F 97% 29.95 in 7.0 mi NNW 8.1 mph - N/A   Overcast
9:52 PM 43.0 °F 38.2 °F 42.1 °F 97% 29.95 in 2.5 mi WNW 8.1 mph - 0.01 in   Overcast
10:12 PM 43.0 °F 38.2 °F 41.0 °F 93% 29.94 in 3.0 mi NW 8.1 mph - 0.01 in Rain Light Rain
10:22 PM 43.0 °F 38.8 °F 41.0 °F 93% 29.93 in 2.5 mi NW 6.9 mph - 0.01 in Rain Light Rain
10:32 PM 42.1 °F 37.7 °F 41.0 °F 96% 29.93 in 4.0 mi NW 6.9 mph - 0.02 in Rain Light Rain
10:52 PM 42.1 °F 37.1 °F 39.9 °F 92% 29.93 in 4.0 mi NW 8.1 mph - 0.02 in Rain Light Rain
11:52 PM 41.0 °F 34.3 °F 39.0 °F 93% 29.91 in 3.0 mi WNW 11.5 mph - 0.01 in Rain Light Rain